www.pogodaiklimat.ru

Погода и климат >> Архив погоды >> Киргизия >> Кара-Ссу


ПОГОДА в Кара-Ссу

  • Прогноз погоды в Кара-Ссу
  • Монитор погоды в Кара-Ссу

АРХИВ ПОГОДЫ в Кара-Ссу

Время (UTC), дата Ветер
(напр.,м/с)
 
Видим.   Явления Облачность Т
(С)
Тd
(С)
f
(%)
Тe
(С)
Тes
(С)
Комфортность P
(гПа)
Po
(гПа)
Тmin
(С)
Tmax
(С)
R
(мм)
R24
(мм)
S
(см)
15 15.09 СЗ 1 н/о 9/9 600 м
[Cb calv]
+17.2 +10.7 66 +18 +18 1018.2 921.3 +24.3
18 15.09 СЗ 1 н/о 9/9 600 м
[Sc]
+17.2 +12.3 73 +18 +18 1018.6 921.6 +24.3 0.0
21 15.09 штиль 0 н/о 9/9 600 м
[Cb calv]
+15.4 +11.1 76 +15 +15 1017.8 920.4
00 16.09 Ю 1 н/о 9/9 600 м
[Cb calv]
+15.2 +7.3 59 +16 +16 1019.5 921.6
03 16.09 штиль 0 20 км 6/5 600 м
[Cb calv Ci fib]
+18.8 +6.9 46 +19 +21 1019.0 922.4
06 16.09 В 1 20 км 3/3 600 м
[Cb calv]
+22.1 +1.8 26 +22 +32 комфорт 1017.4 921.8 +14.0 7 185
09 16.09 С 2 20 км 1/1 600 м
[Cb calv]
+23.7 +3.4 27 +23 +32 комфорт 1014.7 919.9
12 16.09 Ю 1 20 км 5/4 600 м
[Cb calv Ci fib]
+23.6 +4.2 28 +23 +24 комфорт 1015.3 920.4
15 16.09 штиль 0 н/о 9/9 600 м
[Cb calv]
+15.2 +8.1 63 +15 +15 1018.7 920.9 +24.6
18 16.09 Ю 1 н/о 9/9 600 м
[Cb calv]
+16.4 +6.2 51 +17 +17 1019.1 921.7 +24.6
21 16.09 В 1 н/о 6/6 600 м
[Sc]
+15.3 +8.2 63 +16 +16 1019.9 922.1
00 17.09 В 1 н/о 9/9 600 м
[Cb calv]
+13.2 +7.7 69 +13 +13 1020.9 922.3
03 17.09 С 2 20 км 4/1 600 м
[Sc Ci sp]
+18.4 +6.9 47 +19 +22 1020.2 923.2
06 17.09 Ю 2 20 км 1/1 600 м
[Sc]
+23.0 +4.4 30 +23 +34 комфорт 1018.1 922.7 +12.0 +12.0
09 17.09 СЗ 1 20 км 1/1 600 м
[Cu med, cong]
+24.5 +4.5 27 +24 +35 комфорт 1017.0 922.2
12 17.09 С 1 20 км ясно +24.9 +3.0 24 +24 +25 комфорт 1016.3 921.7
15 17.09 штиль 0 н/о ясно +12.9 +7.6 70 +13 +13 1020.8 922.2 +26.5
18 17.09 ЮВ 1 н/о ясно +11.2 +4.8 65 +11 +11 1021.0 921.6 +26.5
21 17.09 В 2 н/о ясно +10.1 +5.0 71 +9 +9 1019.6 920.1
00 18.09 В 1 н/о ясно +11.2 +3.0 57 +11 +11 1017.9 918.9
03 18.09 С 1 50 км ясно +18.5 +5.7 43 +20 +23 1015.4 919.0
06 18.09 штиль 0 20 км ясно +23.8 +4.9 29 +24 +39 комфорт 1012.8 918.2 +8.4 121
09 18.09 С 2 20 км ясно +27.1 +5.2 25 +26 +36 жарко 1010.3 916.9
12 18.09 Ю 1 20 км ясно +25.8 +5.6 27 +25 +27 комфорт 1010.0 916.3
15 18.09 В 2 н/о 1/1 600 м
[Sc]
+16.4 +6.7 53 +17 +17 1015.3 918.3 +28.2
18 18.09 В 2 н/о 4/4 600 м
[Sc]
+14.4 +6.1 57 +14 +14 1016.8 919.0 +28.2
21 18.09 В 1 н/о 3/3 600 м
[Sc]
+13.2 +5.6 60 +14 +14 1017.2 919.0 220
00 19.09 В 2 н/о 5/5 600 м
[Cb calv]
+17.1 0.0 31 +18 +18 1017.2 920.0
03 19.09 Ю 1 20 км 1/1 600 м
[Sc]
+20.6 +6.3 39 +23 +25 комфорт 1016.1 920.3
06 19.09 Ю 1 20 км 3/0
[Ci fib]
+29.7 +1.7 17 +27 +40 жарко 1014.2 921.2 +12.1
09 19.09 СВ 4 20 км 1/1 600 м
[Cu med, cong]
+30.9 +2.5 16 +28 +34 жарко 1012.4 919.9
12 19.09 С 1 20 км ясно +31.3 +5.2 19 +29 +30 жарко 1011.4 919.2
15 19.09 ЮВ 2 н/о ясно +18.0 +6.8 48 +19 +19 1016.6 919.9 +32.2
18 19.09 Ю 5 н/о ясно +22.2 +0.1 23 +22 +22 комфорт 1014.9 919.5 +32.2
21 19.09 ЮВ 4 н/о ясно +20.0 +2.0 30 +20 +20 1014.7 918.7
00 20.09 ЮВ 2 н/о ясно +17.4 +1.5 34 +18 +18 1015.4 918.5
03 20.09 Ю 1 20 км ясно +22.2 +8.2 41 +23 +26 комфорт 1014.7 919.5
06 20.09 С 2 20 км ясно +27.9 +5.4 24 +27 +38 жарко 1012.3 919.1 +13.5 164
09 20.09 З 3 20 км 1/1 600 м
[Sc]
+30.5 +7.7 24 +29 +37 жарко 1009.1 916.9
12 20.09 З 1 20 км ясно +30.5 +7.7 24 +29 +31 жарко 1008.3 916.2
15 20.09 ЮВ 1 н/о ясно +18.0 +9.5 58 +19 +19 1013.2 917.0 +31.6
18 20.09 Ю 1 н/о 1/1 600 м
[Sc]
+15.5 +6.5 55 +16 +16 1014.4 917.2 +31.6
21 20.09 В 1 н/о 1/1 600 м
[Sc]
-1.0 -3.5 83 -3 -3 1014.4 663.2
00 21.09 Ю 1 н/о 1/1 600 м
[Sc]
+14.8 +4.0 48 +15 +15 1014.4 916.9
03 21.09 штиль 0 20 км ясно +23.0 +6.5 34 +24 +27 комфорт 1011.6 916.9
06 21.09 С 1 20 км ясно +27.7 +5.6 24 +27 +40 жарко 1008.9 915.9 +12.5 117
09 21.09 Ю 2 20 км 1/1 600 м
[Sc]
+29.9 +1.0 16 +27 +36 жарко 1006.6 914.4
12 21.09 С 1 20 км 1/1 600 м
[Sc]
+29.7 +8.9 27 +29 +30 жарко 1006.2 914.0
15 21.09 Ю 1 н/о +16.8 +10.9 68 +18 +18 1010.5 914.2 +31.1
18 21.09 В 2 н/о ясно +15.4 +7.8 60 +15 +15 1011.7 914.7 +31.1
21 21.09 В 2 н/о ясно +17.2 +4.9 44 +18 +18 1010.6 914.2
00 22.09 В 2 н/о ясно +13.5 +4.6 55 +13 +13 1011.8 914.2
03 22.09 штиль 0 20 км ясно +22.4 +10.2 46 +24 +28 комфорт 1009.0 914.5
06 22.09 З 1 20 км ясно +29.2 +7.7 26 +28 +41 жарко 1006.7 914.4 +12.5
09 22.09 З 3 20 км ясно +31.5 +5.3 19 +29 +37 жарко 1005.1 913.5
12 22.09 З 2 20 км ясно +30.6 +7.0 23 +29 +30 жарко 1005.6 913.7

 

Местоположение метеостанции Кара-Ссу (город Ош, Киргизия): широта 40.70 долгота 72.90 высота над уровнем моря 868 м.

В архиве по умолчанию представлена погода в Кара-Ссу за последнюю неделю. Архивные данные за месяц целиком и за предыдущие месяцы, начиная с января 2011 года, Вы можете получить, выбрав интересующий диапазон дат из раскрывающегося списка и нажав кнопку "Ввод!".


*Определитесь, кто Вы:
робот инопланетянин человек

Внимание! Время в таблицах - всемирное. Для получения местного времени необходимо прибавить поправку, которая равна 5 ч.

Смотрите также архив погоды в соседних городах и на ближайших метеорологических станциях:

Погода в Джалал-Абаде (Джалал-Абадская область, Киргизия) (25 км)
Погода в Узгене (Ошская область, Киргизия) (35 км)
Погода в Андижан (Андижанская область, Узбекистан) (48 км)
Погода в Ноокате (Ошская область, Киргизия) (53 км)
Погода в Ак-Тереке (Иссык-Кульская область, Киргизия) (65 км)
Погода в Куве (Ферганская область, Узбекистан) (74 км)
Погода в Бозе (Андижанская область, Узбекистан) (83 км)
Погода в Фергане (Ферганская область, Узбекистан) (104 км)
Погода в Юбилейной (Андижанская область, Узбекистан) (111 км)
Погода в Намангане (Намаганская область, Узбекистан) (115 км)

Пояснения к столбцам:

Ветер - указаны скорость ветра в м/с - средняя за 10 мин, порывы в срок и между сроками (в фигурных скобках) и направление, откуда дует ветер: С - северный, СВ - северо-восточный, В - восточный, ЮВ - юго-восточный, Ю - южный, ЮЗ - юго-западный, З - западный, СЗ - северо-западный.
Видимость - горизонтальная дальность видимости в метрах или километрах. При видимости от 1 до 10 км при отсутствии осадков обычно наблюдается дымка, при ухудшении видимости до 1 км и менее - туман. В сухую погоду видимость может ухудшаться дымом, пылью или мглою.
Явления - указаны атмосферные явления, наблюдавшиеся в срок или в последний час перед сроком; фигурными скобками обозначены явления, наблюдавшиеся между сроками (за 1-3 часа до срока); квадратными скобками обозначены град или гололедные отложения с указанием их диаметра в мм.
Облачность - указаны через наклонную черту общая и нижняя облачность в баллах и высота нижней границы облаков в метрах; квадратными скобками обозначены формы облаков: Ci - перистые, Cs - перисто-слоистые, Cc - перисто-кучевые, Ac - высококучевые, As - высокослоистые, Sc - слоисто-кучевые, Ns - слоисто-дождевые, Cu - кучевые, Cb - кучево-дождевые. Подробнее классификацию облаков см. в Атласе облаков (PDF).
T - Температура воздуха - температура, измеренная на высоте 2 м над землей.
Td - Температура точки росы - температура, при понижении до которой содержащийся в воздухе водяной пар достигнет насыщения.
f - Относительная влажность воздуха - влажноcть воздуха, измеренная на высоте 2 м над землей.
Te - Эффективная температура - температура, которую ощущает одетый по сезону человек в тени. Характеристика душности погоды. При расчете учитывается влияние влажности воздуха и скорости ветра на теплоощущения человека.
Tes - Эффективная температура на солнце - температура, которую ощущает человек, с поправкой на солнечный нагрев. Характеристика знойности погоды. Зависит от высоты солнца над горизонтом, облачности и скорости ветра. Ночью, в пасмурную погоду, а также при ветре 12 м/с и более поправка равна нулю.
P - Атмосферное давление - приведенное к уровню моря атмосферное давление.
Po - Атмосферное давление - измеренное на уровне метеостанции атмосферное давление.
Tmin - Минимальная температура - минимум температуры воздуха на высоте 2 м над землей.
Tmax - Максимальная температура - максимум температуры воздуха на высоте 2 м над землей.
R - Количество осадков - Количество выпавших осадков за период времени, мм. При наведении курсора мыши на число - период времени, за который выпало указанное количество осадков.
R24 - Количество осадков - Количество выпавших осадков за 24 часа, мм.
S - Снежный покров - Высота снежного покрова, см. При наведении курсора мыши на число - состояние снежного покрова и степень покрытия местности в баллах.